Milton, FL

3:37 AM CDT on May 27, 2017 (GMT -0500)
Whiting Field Naval Air Station (South)

Weather History for KNDZ - May, 2013

Change the Weather History Date:

Wednesday, May 29, 2013

  Actual Average (KNSE) Record (KNSE)
Temperature  
Mean Temperature 78 °F -  
Max Temperature 90 °F 83 °F 99 °F (2012)
Min Temperature 68 °F 65 °F 61 °F (2003)
Cooling Degree Days 14    
Growing Degree Days 28 (Base 50)    
Moisture  
Dew Point 67 °F    
Average Humidity 71    
Maximum Humidity 90    
Minimum Humidity 48    
Precipitation  
Precipitation 0.00 in - - ()
Sea Level Pressure  
Sea Level Pressure 30.03 in    
Wind  
Wind Speed 8 mph (ESE)    
Max Wind Speed 21 mph    
Max Gust Speed 25 mph    
Visibility 10 miles    
Events      
Averages and records for this station are not official NWS values.
T = Trace of Precipitation, MM = Missing Value Source: NWS Daily Summary

Daily Weather History Graph

Daily Weather History Graph

Search for Another Location

Airport or City:

Trip Planner

Search our weather history database for the weather conditions in past years. The results will help you decide how hot, cold, wet, or windy it might be!

Date:

Astronomy

May. 29, 2013 Rise Set
Actual Time 5:46 AM CDT 7:44 PM CDT
Civil Twilight 5:19 AM CDT 8:11 PM CDT
Nautical Twilight 4:46 AM CDT 8:44 PM CDT
Astronomical Twilight 4:11 AM CDT 9:20 PM CDT
Moon 11:59 PM CDT (5/29) 10:34 AM CDT (5/29)
Length of Visible Light 14h 52m
Length of Day
13h 58m
Waning Gibbous, 73% of the Moon is Illuminated
May 29
Waning Gibbous
May 31
Last Quarter
Jun 8
New
Jun 16
First Quarter
Jun 23
Full

Hourly Weather History & Observations

Time (CDT) Temp. Heat Index Dew Point Humidity Pressure Visibility Wind Dir Wind Speed Gust Speed Precip Events Conditions
12:56 AM 71.1 °F - 66.9 °F 87% 30.03 in 10.0 mi East 5.8 mph - N/A   Clear
1:56 AM 70.0 °F - 66.9 °F 90% 30.01 in 10.0 mi Calm Calm - N/A   Clear
2:56 AM 70.0 °F - 66.9 °F 90% 29.99 in 10.0 mi East 3.5 mph - N/A   Clear
3:56 AM 68.0 °F - 64.9 °F 90% 30.00 in 10.0 mi ENE 6.9 mph - N/A   Partly Cloudy
4:56 AM 68.0 °F - 64.0 °F 87% 30.01 in 10.0 mi ENE 6.9 mph - N/A   Clear
5:56 AM 68.0 °F - 63.0 °F 84% 30.02 in 10.0 mi East 8.1 mph - N/A   Clear
6:56 AM 69.1 °F - 64.0 °F 84% 30.03 in 10.0 mi East 6.9 mph - N/A   Partly Cloudy
7:21 AM 71.6 °F - 64.4 °F 78% 30.08 in 10.0 mi East 6.9 mph - N/A   Mostly Cloudy
7:41 AM 73.4 °F - 66.2 °F 78% 30.08 in 10.0 mi East 5.8 mph - N/A   Scattered Clouds
7:56 AM 75.0 °F - 68.0 °F 79% 30.04 in 10.0 mi ESE 4.6 mph - N/A   Partly Cloudy
8:17 AM 77.0 °F - 68.0 °F 74% 30.09 in 10.0 mi East 5.8 mph - N/A   Mostly Cloudy
8:56 AM 82.0 °F 85.9 °F 70.0 °F 67% 30.04 in 10.0 mi ESE 15.0 mph - N/A   Mostly Cloudy
9:20 AM 80.6 °F 83.9 °F 69.8 °F 70% 30.09 in 10.0 mi SSE 9.2 mph - N/A   Mostly Cloudy
9:29 AM 84.2 °F 88.4 °F 69.8 °F 62% 30.08 in 10.0 mi ESE 13.8 mph 24.2 mph N/A   Mostly Cloudy
9:56 AM 84.9 °F 89.4 °F 70.0 °F 61% 30.05 in 10.0 mi SE 16.1 mph 20.7 mph N/A   Scattered Clouds
10:56 AM 84.9 °F 88.2 °F 68.0 °F 57% 30.05 in 10.0 mi SSE 15.0 mph 24.2 mph N/A   Mostly Cloudy
11:56 AM 86.0 °F 89.4 °F 68.0 °F 55% 30.04 in 10.0 mi SSE 17.3 mph 23.0 mph N/A   Scattered Clouds
12:56 PM 86.0 °F 88.8 °F 66.9 °F 53% 30.04 in 10.0 mi SSE 16.1 mph 24.2 mph N/A   Mostly Cloudy
1:56 PM 89.1 °F 92.1 °F 66.9 °F 48% 30.02 in 10.0 mi SSE 17.3 mph 23.0 mph N/A   Scattered Clouds
2:56 PM 87.1 °F 90.6 °F 68.0 °F 53% 30.02 in 10.0 mi SSE 20.7 mph 25.3 mph N/A   Mostly Cloudy
3:56 PM 86.0 °F 88.8 °F 66.9 °F 53% 30.00 in 10.0 mi SSE 18.4 mph 25.3 mph N/A   Partly Cloudy
4:56 PM 84.9 °F 87.1 °F 66.0 °F 53% 30.00 in 10.0 mi SSE 17.3 mph 25.3 mph N/A   Scattered Clouds
5:56 PM 84.0 °F 85.4 °F 64.0 °F 51% 29.99 in 10.0 mi SSE 16.1 mph - N/A   Clear
6:56 PM 82.0 °F 83.8 °F 64.9 °F 56% 30.00 in 10.0 mi SE 10.4 mph 18.4 mph N/A   Clear
7:56 PM 78.1 °F - 66.0 °F 66% 30.00 in 10.0 mi SSE 9.2 mph - N/A   Clear
8:56 PM 75.9 °F - 66.9 °F 74% 30.01 in 10.0 mi SE 5.8 mph - N/A   Clear
9:56 PM 75.0 °F - 68.0 °F 79% 30.01 in 10.0 mi ESE 6.9 mph - N/A   Clear
10:56 PM 73.9 °F - 68.0 °F 82% 30.01 in 10.0 mi Calm Calm - N/A   Clear
11:56 PM 73.9 °F - 69.1 °F 85% 30.01 in 10.0 mi East 5.8 mph - N/A   Clear